Regional Weather Roundup
Issued by NWS Cleveland, OH

Home | Current Version | Previous Version | Text Only | Print | Product List | Glossary Off
Versions: 1 2 3 4 5 6 7 8 9 10 11 12 13 14 15 16 17 18 19 20 21 22 23 24 25 26 27 28 29 30 31 32 33 34 35 36 37 38 39 40 41 42 43 44 45 46 47 48 49 50

000
ASUS41 KCLE 061010
RWRCLE
OHIO REGIONAL WEATHER ROUNDUP
NATIONAL WEATHER SERVICE WILMINGTON, OH
600 AM EDT MON JUL 06 2015

NOTE: "FAIR" INDICATES FEW OR NO CLOUDS BELOW 12,000 FEET WITH NO
SIGNIFICANT WEATHER AND/OR OBSTRUCTIONS TO VISIBILITY.

OHZ001>008-015>018-024>027-034-035-043-044-061100-
   NORTHWEST OHIO

CITY           SKY/WX    TMP DP  RH WIND       PRES   REMARKS
DEFIANCE       CLEAR     59  57  93 CALM      30.08R FOG
FINDLAY        FOG       60  58  92 CALM      30.08R VSB 3/4
TOLEDO EXPRESS CLEAR     57  56  96 CALM      30.07S FOG
TOLEDO EXEC    CLEAR     62  58  86 CALM      30.09R
LIMA           CLEAR     59  56  89 CALM      30.09R
$$

OHZ009>014-019>023-028>033-038-089-061100-
   NORTHEAST OHIO

CITY           SKY/WX    TMP DP  RH WIND       PRES   REMARKS
CLE-HOPKINS    MOCLDY    62  59  90 CALM      30.08S
CLE-LAKEFRONT  MOCLDY    68  60  75 CALM      30.05S
CUY CO. ARPT   NOT AVBL
LORAIN-ELYRIA  MOCLDY    60  58  92 CALM      30.08R FOG
ASHTABULA      PTCLDY    64  61  90 SE3       30.09R
AKRON-CANTON   MOCLDY    65  59  81 NE6       30.08R
WOOSTER        CLOUDY    62  60  93 N3        30.09R FOG
MANSFIELD      CLEAR     61  59  93 CALM      30.09R
YOUNGSTOWN     CLOUDY    65  62  90 E8        30.08R
$$

OHZ042-051>053-060>062-070>072-077>081-061100-
  SOUTHWEST OHIO

CITY           SKY/WX    TMP DP  RH WIND       PRES   REMARKS
CINC-COVINGTON PTCLDY    62  59  90 CALM      30.09R FOG
CINC-LUNKEN    PTCLDY    61  61 100 CALM      30.09R FOG
HAMILTON       CLEAR     60  59  96 CALM      30.10R FOG
DAYTON         CLEAR     63  60  90 CALM      30.10R
WRIGHT-PAT AFB CLEAR     61  60  97 S1        30.09R
DAYTON GENERAL CLEAR     62  60  93 CALM      30.08R
WILMINGTON     CLEAR     65  60  84 NW7       30.08R
$$

OHZ036-037-039>041-045>050-054>059-063>069-073>076-082>088-061100-
  CENTRAL AND SOUTHEAST OHIO

CITY           SKY/WX    TMP DP  RH WIND       PRES   REMARKS
COLUMBUS       MOCLDY    65  62  90 N5        30.05R
OSU AIRPORT    CLEAR     63  60  90 N5        30.06S
BOLTON FIELD   CLEAR     63  61  94 NW3       30.07R
RICKENBACK AFB CLOUDY    65  62  90 NW3       30.05S
NEWARK         CLOUDY    64  62  93 N3        30.06R
MARION         CLEAR     59  57  93 NE3       30.08R FOG
LANCASTER      CLOUDY    64  62  93 CALM      30.06R FOG
ZANESVILLE     PTCLDY    64  61  90 NW3       30.06R FOG
NEW PHILLY     MOCLDY    65  63  93 CALM      30.07R
$$



USA.gov is the U.S. government's official web portal to all federal, state and local government web resources and services.